#datetime,building,power
2021-12-03T00:00:00,pkn,2.40
2021-12-03T00:01:00,pkn,1.20
2021-12-03T00:03:00,pkn,2.40
2021-12-03T00:05:00,pkn,2.40
2021-12-03T00:07:00,pkn,1.20
2021-12-03T00:08:00,pkn,1.20
2021-12-03T00:10:00,pkn,2.39
2021-12-03T00:12:00,pkn,2.40
2021-12-03T00:13:00,pkn,1.20
2021-12-03T00:14:00,pkn,1.20
2021-12-03T00:16:00,pkn,1.20
2021-12-03T00:17:00,pkn,1.20
2021-12-03T00:19:00,pkn,2.40
2021-12-03T00:21:00,pkn,2.40
2021-12-03T00:23:00,pkn,2.40
2021-12-03T00:25:00,pkn,1.19
2021-12-03T00:26:00,pkn,1.20
2021-12-03T00:27:00,pkn,1.20
2021-12-03T00:29:00,pkn,2.40
2021-12-03T00:31:00,pkn,1.20
2021-12-03T00:33:00,pkn,2.40
2021-12-03T00:34:00,pkn,1.20
2021-12-03T00:36:00,pkn,2.40
2021-12-03T00:38:00,pkn,7.19
2021-12-03T00:39:00,pkn,4.80
2021-12-03T00:41:00,pkn,9.60
2021-12-03T00:43:00,pkn,10.80
2021-12-03T00:45:00,pkn,4.80
2021-12-03T00:47:00,pkn,2.40
2021-12-03T00:49:00,pkn,1.20
2021-12-03T00:51:00,pkn,2.40
2021-12-03T00:53:00,pkn,2.39
2021-12-03T00:55:00,pkn,2.40
2021-12-03T00:57:00,pkn,3.60
2021-12-03T00:59:00,pkn,4.80
2021-12-03T01:00:00,pkn,1.20
2021-12-03T01:02:00,pkn,2.39
2021-12-03T01:04:00,pkn,8.41
2021-12-03T01:06:00,pkn,8.39
2021-12-03T01:07:00,pkn,2.40
2021-12-03T01:09:00,pkn,2.40
2021-12-03T01:10:00,pkn,1.20
2021-12-03T01:12:00,pkn,2.40
2021-12-03T01:14:00,pkn,2.40
2021-12-03T01:16:00,pkn,2.39
2021-12-03T01:18:00,pkn,6.01
2021-12-03T01:19:00,pkn,3.60
2021-12-03T01:21:00,pkn,4.80
2021-12-03T01:24:00,pkn,2.39
2021-12-03T01:25:00,pkn,3.60
2021-12-03T01:27:00,pkn,9.59
2021-12-03T01:28:00,pkn,6.01
2021-12-03T01:30:00,pkn,8.40
2021-12-03T01:32:00,pkn,10.80
2021-12-03T01:34:00,pkn,4.80
2021-12-03T01:35:00,pkn,1.20
2021-12-03T01:37:00,pkn,1.20
2021-12-03T01:39:00,pkn,1.20
2021-12-03T01:41:00,pkn,2.39
2021-12-03T01:44:00,pkn,1.20
2021-12-03T01:45:00,pkn,1.20
2021-12-03T01:47:00,pkn,1.20
2021-12-03T01:49:00,pkn,2.40
2021-12-03T01:52:00,pkn,1.20
2021-12-03T01:54:00,pkn,2.40
2021-12-03T01:56:00,pkn,1.20
2021-12-03T01:57:00,pkn,1.20
2021-12-03T01:59:00,pkn,1.20
2021-12-03T02:01:00,pkn,1.19
2021-12-03T02:02:00,pkn,1.20
2021-12-03T02:04:00,pkn,1.20
2021-12-03T02:06:00,pkn,3.60
2021-12-03T02:07:00,pkn,4.80
2021-12-03T02:08:00,pkn,4.80
2021-12-03T02:10:00,pkn,9.60
2021-12-03T02:11:00,pkn,1.20
2021-12-03T02:12:00,pkn,8.40
2021-12-03T02:13:00,pkn,1.20
2021-12-03T02:15:00,pkn,1.20
2021-12-03T02:17:00,pkn,2.40
2021-12-03T02:19:00,pkn,1.19
2021-12-03T02:21:00,pkn,1.20
2021-12-03T02:22:00,pkn,1.20
2021-12-03T02:25:00,pkn,1.20
2021-12-03T02:26:00,pkn,1.20
2021-12-03T02:28:00,pkn,1.20
2021-12-03T02:30:00,pkn,1.20
2021-12-03T02:31:00,pkn,1.20
2021-12-03T02:34:00,pkn,1.20
2021-12-03T02:36:00,pkn,1.20
2021-12-03T02:38:00,pkn,2.40
2021-12-03T02:41:00,pkn,1.20
2021-12-03T02:42:00,pkn,1.19
2021-12-03T02:44:00,pkn,4.80
2021-12-03T02:46:00,pkn,4.80
2021-12-03T02:48:00,pkn,4.79
2021-12-03T02:49:00,pkn,3.60
2021-12-03T02:51:00,pkn,9.59
2021-12-03T02:53:00,pkn,9.60
2021-12-03T02:55:00,pkn,9.60
2021-12-03T02:56:00,pkn,2.40
2021-12-03T02:58:00,pkn,1.20
2021-12-03T03:00:00,pkn,2.40
2021-12-03T03:02:00,pkn,1.20
2021-12-03T03:04:00,pkn,1.20
2021-12-03T03:05:00,pkn,1.20
2021-12-03T03:07:00,pkn,1.19
2021-12-03T03:09:00,pkn,1.20
2021-12-03T03:11:00,pkn,2.40
2021-12-03T03:14:00,pkn,1.20
2021-12-03T03:16:00,pkn,2.40
2021-12-03T03:17:00,pkn,1.20
2021-12-03T03:19:00,pkn,1.20
2021-12-03T03:21:00,pkn,1.20
2021-12-03T03:23:00,pkn,2.40
2021-12-03T03:25:00,pkn,1.19
2021-12-03T03:27:00,pkn,1.20
2021-12-03T03:29:00,pkn,1.20
2021-12-03T03:31:00,pkn,1.20
2021-12-03T03:32:00,pkn,1.20
2021-12-03T03:34:00,pkn,1.20
2021-12-03T03:36:00,pkn,1.20
2021-12-03T03:38:00,pkn,1.20
2021-12-03T03:40:00,pkn,1.20
2021-12-03T03:41:00,pkn,1.20
2021-12-03T03:44:00,pkn,6.01
2021-12-03T03:46:00,pkn,9.59
2021-12-03T03:48:00,pkn,9.59
2021-12-03T03:50:00,pkn,6.01
2021-12-03T03:51:00,pkn,1.20
2021-12-03T03:52:00,pkn,1.20
2021-12-03T03:53:00,pkn,1.20
2021-12-03T03:55:00,pkn,1.20
2021-12-03T03:57:00,pkn,1.20
2021-12-03T03:59:00,pkn,1.20
2021-12-03T04:01:00,pkn,1.20
2021-12-03T04:02:00,pkn,1.20
2021-12-03T04:04:00,pkn,1.20
2021-12-03T04:06:00,pkn,1.20
2021-12-03T04:07:00,pkn,1.20
2021-12-03T04:09:00,pkn,1.19
2021-12-03T04:12:00,pkn,1.20
2021-12-03T04:14:00,pkn,2.40
2021-12-03T04:16:00,pkn,1.20
2021-12-03T04:18:00,pkn,1.20
2021-12-03T04:20:00,pkn,1.20
2021-12-03T04:21:00,pkn,1.20
2021-12-03T04:23:00,pkn,1.20
2021-12-03T04:25:00,pkn,1.20
2021-12-03T04:27:00,pkn,1.20
2021-12-03T04:28:00,pkn,1.20
2021-12-03T04:30:00,pkn,1.20
2021-12-03T04:32:00,pkn,1.19
2021-12-03T04:35:00,pkn,2.40
2021-12-03T04:37:00,pkn,1.20
2021-12-03T04:39:00,pkn,1.20
2021-12-03T04:41:00,pkn,1.20
2021-12-03T04:43:00,pkn,1.20
2021-12-03T04:44:00,pkn,1.20
2021-12-03T04:47:00,pkn,1.20
2021-12-03T04:48:00,pkn,1.20
2021-12-03T04:50:00,pkn,3.60
2021-12-03T04:51:00,pkn,3.60
2021-12-03T04:53:00,pkn,9.60
2021-12-03T04:55:00,pkn,9.59
2021-12-03T04:56:00,pkn,4.80
2021-12-03T04:58:00,pkn,2.40
2021-12-03T04:59:00,pkn,1.20
2021-12-03T05:01:00,pkn,1.20
2021-12-03T05:03:00,pkn,1.20
2021-12-03T05:05:00,pkn,2.40
2021-12-03T05:08:00,pkn,1.20
2021-12-03T05:10:00,pkn,1.20
2021-12-03T05:12:00,pkn,2.40
2021-12-03T05:14:00,pkn,1.20
2021-12-03T05:16:00,pkn,1.19
2021-12-03T05:18:00,pkn,1.20
2021-12-03T05:20:00,pkn,1.20
2021-12-03T05:23:00,pkn,1.20
2021-12-03T05:25:00,pkn,2.40
2021-12-03T05:28:00,pkn,1.20
2021-12-03T05:29:00,pkn,1.20
2021-12-03T05:31:00,pkn,1.20
2021-12-03T05:33:00,pkn,1.20
2021-12-03T05:34:00,pkn,1.20
2021-12-03T05:35:00,pkn,1.20
2021-12-03T05:37:00,pkn,1.19
2021-12-03T05:39:00,pkn,6.00
2021-12-03T05:40:00,pkn,6.01
2021-12-03T05:41:00,pkn,3.60
2021-12-03T05:42:00,pkn,4.80
2021-12-03T05:44:00,pkn,9.60
2021-12-03T05:45:00,pkn,3.60
2021-12-03T05:47:00,pkn,10.80
2021-12-03T05:48:00,pkn,4.80
2021-12-03T05:49:00,pkn,4.80
2021-12-03T05:51:00,pkn,1.20
2021-12-03T05:53:00,pkn,2.40
2021-12-03T05:56:00,pkn,1.20
2021-12-03T05:58:00,pkn,2.39
2021-12-03T06:01:00,pkn,1.20
2021-12-03T06:02:00,pkn,1.20
2021-12-03T06:04:00,pkn,1.20
2021-12-03T06:05:00,pkn,1.20
2021-12-03T06:07:00,pkn,1.20
2021-12-03T06:09:00,pkn,1.20
2021-12-03T06:11:00,pkn,1.20
2021-12-03T06:12:00,pkn,2.40
2021-12-03T06:14:00,pkn,9.60
2021-12-03T06:16:00,pkn,8.40
2021-12-03T06:18:00,pkn,9.60
2021-12-03T06:20:00,pkn,4.78
2021-12-03T06:22:00,pkn,1.20
2021-12-03T06:24:00,pkn,1.20
2021-12-03T06:26:00,pkn,1.20
2021-12-03T06:29:00,pkn,1.20
2021-12-03T06:30:00,pkn,1.20
2021-12-03T06:32:00,pkn,1.20
2021-12-03T06:34:00,pkn,1.20
2021-12-03T06:36:00,pkn,1.20
2021-12-03T06:37:00,pkn,1.20
2021-12-03T06:40:00,pkn,1.20
2021-12-03T06:41:00,pkn,1.20
2021-12-03T06:43:00,pkn,1.19
2021-12-03T06:46:00,pkn,1.20
2021-12-03T06:48:00,pkn,1.20
2021-12-03T06:50:00,pkn,1.20
2021-12-03T06:51:00,pkn,1.20
2021-12-03T06:53:00,pkn,1.20
2021-12-03T06:55:00,pkn,2.40
2021-12-03T06:56:00,pkn,4.80
2021-12-03T06:58:00,pkn,9.59
2021-12-03T07:00:00,pkn,7.21
2021-12-03T07:02:00,pkn,8.40
2021-12-03T07:05:00,pkn,2.39
2021-12-03T07:07:00,pkn,1.20
2021-12-03T07:09:00,pkn,1.20
2021-12-03T07:10:00,pkn,1.20
2021-12-03T07:12:00,pkn,1.20
2021-12-03T07:14:00,pkn,1.20
2021-12-03T07:16:00,pkn,1.20
2021-12-03T07:18:00,pkn,1.20
2021-12-03T07:19:00,pkn,1.20
2021-12-03T07:21:00,pkn,1.20
2021-12-03T07:23:00,pkn,1.20
2021-12-03T07:25:00,pkn,1.20
2021-12-03T07:27:00,pkn,1.20
2021-12-03T07:29:00,pkn,1.19
2021-12-03T07:30:00,pkn,1.20
2021-12-03T07:32:00,pkn,1.20
2021-12-03T07:35:00,pkn,1.20
2021-12-03T07:37:00,pkn,1.20
2021-12-03T07:39:00,pkn,1.20
2021-12-03T07:41:00,pkn,1.20
2021-12-03T07:43:00,pkn,1.20
2021-12-03T07:45:00,pkn,1.20
2021-12-03T07:48:00,pkn,1.20
2021-12-03T07:50:00,pkn,1.20
2021-12-03T07:52:00,pkn,1.20
2021-12-03T07:53:00,pkn,1.19
2021-12-03T07:55:00,pkn,1.20
2021-12-03T07:58:00,pkn,8.40
2021-12-03T08:00:00,pkn,9.60
2021-12-03T08:01:00,pkn,3.60
2021-12-03T08:03:00,pkn,7.21
2021-12-03T08:05:00,pkn,1.20
2021-12-03T08:07:00,pkn,1.20
2021-12-03T08:09:00,pkn,1.20
2021-12-03T08:10:00,pkn,1.20
2021-12-03T08:13:00,pkn,1.20
2021-12-03T08:15:00,pkn,1.20
2021-12-03T08:17:00,pkn,1.20
2021-12-03T08:19:00,pkn,1.19
2021-12-03T08:21:00,pkn,1.20
2021-12-03T08:23:00,pkn,1.20
2021-12-03T08:25:00,pkn,1.20
2021-12-03T08:27:00,pkn,1.20
2021-12-03T08:28:00,pkn,1.20
2021-12-03T08:29:00,pkn,1.20
2021-12-03T08:31:00,pkn,1.20
2021-12-03T08:32:00,pkn,1.20
2021-12-03T08:34:00,pkn,1.20
2021-12-03T08:36:00,pkn,1.20
2021-12-03T08:39:00,pkn,2.39
2021-12-03T08:42:00,pkn,2.40
2021-12-03T08:44:00,pkn,1.20
2021-12-03T08:46:00,pkn,1.20
2021-12-03T08:48:00,pkn,1.20
2021-12-03T08:50:00,pkn,2.40
2021-12-03T08:52:00,pkn,1.20
2021-12-03T08:54:00,pkn,6.00
2021-12-03T08:55:00,pkn,6.00
2021-12-03T08:56:00,pkn,3.60
2021-12-03T08:58:00,pkn,9.60
2021-12-03T09:00:00,pkn,9.59
2021-12-03T09:02:00,pkn,9.60
2021-12-03T09:04:00,pkn,9.59
2021-12-03T09:06:00,pkn,9.60
2021-12-03T09:08:00,pkn,2.40
2021-12-03T09:11:00,pkn,1.20
2021-12-03T09:13:00,pkn,1.20
2021-12-03T09:15:00,pkn,1.20
2021-12-03T09:16:00,pkn,1.20
2021-12-03T09:18:00,pkn,1.20
2021-12-03T09:20:00,pkn,1.20
2021-12-03T09:22:00,pkn,1.20
2021-12-03T09:24:00,pkn,7.19
2021-12-03T09:25:00,pkn,6.01
2021-12-03T09:26:00,pkn,4.80
2021-12-03T09:28:00,pkn,9.60
2021-12-03T09:30:00,pkn,9.60
2021-12-03T09:31:00,pkn,3.60
2021-12-03T09:32:00,pkn,4.80
2021-12-03T09:34:00,pkn,2.40
2021-12-03T09:36:00,pkn,1.20
2021-12-03T09:38:00,pkn,1.20
2021-12-03T09:40:00,pkn,3.60
2021-12-03T09:43:00,pkn,1.20
2021-12-03T09:45:00,pkn,2.39
2021-12-03T09:47:00,pkn,1.20
2021-12-03T09:49:00,pkn,4.80
2021-12-03T09:51:00,pkn,9.60
2021-12-03T09:53:00,pkn,9.60
2021-12-03T09:55:00,pkn,13.21
2021-12-03T09:56:00,pkn,6.01
2021-12-03T09:58:00,pkn,13.18
2021-12-03T09:59:00,pkn,7.21
2021-12-03T10:01:00,pkn,3.60
2021-12-03T10:02:00,pkn,1.20
2021-12-03T10:04:00,pkn,1.20
2021-12-03T10:06:00,pkn,1.20
2021-12-03T10:07:00,pkn,1.19
2021-12-03T10:09:00,pkn,1.20
2021-12-03T10:12:00,pkn,1.20
2021-12-03T10:13:00,pkn,1.20
2021-12-03T10:15:00,pkn,9.60
2021-12-03T10:17:00,pkn,9.60
2021-12-03T10:18:00,pkn,1.20
2021-12-03T10:19:00,pkn,8.40
2021-12-03T10:20:00,pkn,4.80
2021-12-03T10:21:00,pkn,2.40
2021-12-03T10:23:00,pkn,1.20
2021-12-03T10:24:00,pkn,1.20
2021-12-03T10:27:00,pkn,1.20
2021-12-03T10:29:00,pkn,1.20
2021-12-03T10:31:00,pkn,1.19
2021-12-03T10:33:00,pkn,1.20
2021-12-03T10:35:00,pkn,1.20
2021-12-03T10:37:00,pkn,1.20
2021-12-03T10:39:00,pkn,1.20
2021-12-03T10:41:00,pkn,2.40
2021-12-03T10:43:00,pkn,8.40
2021-12-03T10:44:00,pkn,4.80
2021-12-03T10:46:00,pkn,9.60
2021-12-03T10:48:00,pkn,9.60
2021-12-03T10:50:00,pkn,3.60
2021-12-03T10:53:00,pkn,1.20
2021-12-03T10:55:00,pkn,1.20
2021-12-03T10:56:00,pkn,1.19
2021-12-03T10:59:00,pkn,1.20
2021-12-03T11:01:00,pkn,1.20
2021-12-03T11:03:00,pkn,1.20
2021-12-03T11:05:00,pkn,1.20
2021-12-03T11:07:00,pkn,1.20
2021-12-03T11:09:00,pkn,1.20
2021-12-03T11:11:00,pkn,1.20
2021-12-03T11:14:00,pkn,7.20
2021-12-03T11:15:00,pkn,4.80
2021-12-03T11:17:00,pkn,9.60
2021-12-03T11:18:00,pkn,3.60
2021-12-03T11:19:00,pkn,1.20
2021-12-03T11:20:00,pkn,8.40
2021-12-03T11:21:00,pkn,1.19
2021-12-03T11:23:00,pkn,1.19
2021-12-03T11:25:00,pkn,1.20
2021-12-03T11:27:00,pkn,1.20
2021-12-03T11:29:00,pkn,1.20
2021-12-03T11:30:00,pkn,1.20
2021-12-03T11:32:00,pkn,1.20
2021-12-03T11:34:00,pkn,2.40
2021-12-03T11:35:00,pkn,4.80
2021-12-03T11:37:00,pkn,8.40
2021-12-03T11:38:00,pkn,6.00
2021-12-03T11:40:00,pkn,9.60
2021-12-03T11:42:00,pkn,4.80
2021-12-03T11:43:00,pkn,2.40
2021-12-03T11:44:00,pkn,1.19
2021-12-03T11:46:00,pkn,3.60
2021-12-03T11:48:00,pkn,3.60
2021-12-03T11:49:00,pkn,1.20
2021-12-03T11:52:00,pkn,1.20
2021-12-03T11:55:00,pkn,1.20
2021-12-03T11:57:00,pkn,2.40
2021-12-03T12:00:00,pkn,1.19
2021-12-03T12:02:00,pkn,1.20
2021-12-03T12:03:00,pkn,1.20
2021-12-03T12:05:00,pkn,9.60
2021-12-03T12:06:00,pkn,3.60
2021-12-03T12:08:00,pkn,10.80
2021-12-03T12:10:00,pkn,6.00
2021-12-03T12:11:00,pkn,1.20
2021-12-03T12:13:00,pkn,1.20
2021-12-03T12:15:00,pkn,1.20
2021-12-03T12:17:00,pkn,1.20
2021-12-03T12:18:00,pkn,1.20
2021-12-03T12:21:00,pkn,1.20
2021-12-03T12:23:00,pkn,2.39
2021-12-03T12:26:00,pkn,1.20
2021-12-03T12:28:00,pkn,1.20
2021-12-03T12:29:00,pkn,1.20
2021-12-03T12:31:00,pkn,1.20
2021-12-03T12:33:00,pkn,1.20
2021-12-03T12:35:00,pkn,1.20
2021-12-03T12:38:00,pkn,1.20
2021-12-03T12:40:00,pkn,7.20
2021-12-03T12:42:00,pkn,8.40
2021-12-03T12:44:00,pkn,9.60
2021-12-03T12:45:00,pkn,3.59
2021-12-03T12:48:00,pkn,1.20
2021-12-03T12:51:00,pkn,1.20
2021-12-03T12:53:00,pkn,1.20
2021-12-03T12:55:00,pkn,1.20
2021-12-03T12:57:00,pkn,1.20
2021-12-03T12:59:00,pkn,1.20
2021-12-03T13:01:00,pkn,1.20
2021-12-03T13:02:00,pkn,1.20
2021-12-03T13:04:00,pkn,1.20
2021-12-03T13:05:00,pkn,1.20
2021-12-03T13:08:00,pkn,1.20
2021-12-03T13:09:00,pkn,1.20
2021-12-03T13:11:00,pkn,1.19
2021-12-03T13:13:00,pkn,1.20
2021-12-03T13:15:00,pkn,2.40
2021-12-03T13:17:00,pkn,8.40
2021-12-03T13:19:00,pkn,9.60
2021-12-03T13:20:00,pkn,4.80
2021-12-03T13:22:00,pkn,7.20
2021-12-03T13:24:00,pkn,1.20
2021-12-03T13:26:00,pkn,1.20
2021-12-03T13:27:00,pkn,1.20
2021-12-03T13:31:00,pkn,1.20
2021-12-03T13:32:00,pkn,1.20
2021-12-03T13:34:00,pkn,1.20
2021-12-03T13:36:00,pkn,1.19
2021-12-03T13:38:00,pkn,2.40
2021-12-03T13:40:00,pkn,1.20
2021-12-03T13:43:00,pkn,2.40
2021-12-03T13:45:00,pkn,1.20
2021-12-03T13:46:00,pkn,1.20
2021-12-03T13:48:00,pkn,1.20
2021-12-03T13:51:00,pkn,1.20
2021-12-03T13:53:00,pkn,2.40
2021-12-03T13:55:00,pkn,1.20
2021-12-03T13:58:00,pkn,1.19
2021-12-03T13:59:00,pkn,3.60
2021-12-03T14:01:00,pkn,12.00
2021-12-03T14:03:00,pkn,15.59
2021-12-03T14:04:00,pkn,6.01
2021-12-03T14:06:00,pkn,9.60
2021-12-03T14:08:00,pkn,1.20
2021-12-03T14:09:00,pkn,1.20
2021-12-03T14:11:00,pkn,1.20
2021-12-03T14:13:00,pkn,1.19
2021-12-03T14:15:00,pkn,1.20
2021-12-03T14:16:00,pkn,1.20
2021-12-03T14:18:00,pkn,1.20
2021-12-03T14:20:00,pkn,1.20
2021-12-03T14:22:00,pkn,1.20
2021-12-03T14:24:00,pkn,1.20
2021-12-03T14:26:00,pkn,1.20
2021-12-03T14:28:00,pkn,1.20
2021-12-03T14:30:00,pkn,1.20
2021-12-03T14:32:00,pkn,1.20
2021-12-03T14:34:00,pkn,1.20
2021-12-03T14:36:00,pkn,1.19
2021-12-03T14:38:00,pkn,1.20
2021-12-03T14:40:00,pkn,1.20
2021-12-03T14:42:00,pkn,1.20
2021-12-03T14:45:00,pkn,1.20
2021-12-03T14:47:00,pkn,2.40
2021-12-03T14:48:00,pkn,2.40
2021-12-03T14:49:00,pkn,3.60
2021-12-03T14:51:00,pkn,9.60
2021-12-03T14:53:00,pkn,8.40
2021-12-03T14:55:00,pkn,8.40
2021-12-03T14:58:00,pkn,1.19
2021-12-03T15:00:00,pkn,1.20
2021-12-03T15:01:00,pkn,1.20
2021-12-03T15:03:00,pkn,2.40
2021-12-03T15:05:00,pkn,2.40
2021-12-03T15:06:00,pkn,1.20
2021-12-03T15:07:00,pkn,1.20
2021-12-03T15:09:00,pkn,4.79
2021-12-03T15:11:00,pkn,4.80
2021-12-03T15:13:00,pkn,2.40
2021-12-03T15:15:00,pkn,2.40
2021-12-03T15:17:00,pkn,1.20
2021-12-03T15:20:00,pkn,1.20
2021-12-03T15:22:00,pkn,2.40
2021-12-03T15:25:00,pkn,2.39
2021-12-03T15:27:00,pkn,1.20
2021-12-03T15:30:00,pkn,2.40
2021-12-03T15:32:00,pkn,1.20
2021-12-03T15:34:00,pkn,7.20
2021-12-03T15:36:00,pkn,10.80
2021-12-03T15:38:00,pkn,9.60
2021-12-03T15:40:00,pkn,1.20
2021-12-03T15:42:00,pkn,1.20
2021-12-03T15:44:00,pkn,1.19
2021-12-03T15:45:00,pkn,1.20
2021-12-03T15:47:00,pkn,2.40
2021-12-03T15:49:00,pkn,1.20
2021-12-03T15:51:00,pkn,1.20
2021-12-03T15:53:00,pkn,4.80
2021-12-03T15:54:00,pkn,3.60
2021-12-03T15:55:00,pkn,3.59
2021-12-03T15:57:00,pkn,3.60
2021-12-03T15:59:00,pkn,3.60
2021-12-03T16:01:00,pkn,2.40
2021-12-03T16:04:00,pkn,1.20
2021-12-03T16:06:00,pkn,2.39
2021-12-03T16:09:00,pkn,1.20
2021-12-03T16:11:00,pkn,1.20
2021-12-03T16:12:00,pkn,1.20
2021-12-03T16:14:00,pkn,1.20
2021-12-03T16:16:00,pkn,2.40
2021-12-03T16:18:00,pkn,8.40
2021-12-03T16:20:00,pkn,9.60
2021-12-03T16:21:00,pkn,4.80
2021-12-03T16:23:00,pkn,9.60
2021-12-03T16:24:00,pkn,1.20
2021-12-03T16:26:00,pkn,2.39
2021-12-03T16:28:00,pkn,1.20
2021-12-03T16:29:00,pkn,1.20
2021-12-03T16:30:00,pkn,1.20
2021-12-03T16:31:00,pkn,1.20
2021-12-03T16:34:00,pkn,2.40
2021-12-03T16:36:00,pkn,1.20
2021-12-03T16:38:00,pkn,1.20
2021-12-03T16:39:00,pkn,1.20
2021-12-03T16:41:00,pkn,1.20
2021-12-03T16:43:00,pkn,1.20
2021-12-03T16:44:00,pkn,1.19
2021-12-03T16:46:00,pkn,2.40
2021-12-03T16:48:00,pkn,1.20
2021-12-03T16:50:00,pkn,1.20
2021-12-03T16:52:00,pkn,1.20
2021-12-03T16:54:00,pkn,1.20
2021-12-03T16:56:00,pkn,1.20
2021-12-03T16:57:00,pkn,1.20
2021-12-03T16:59:00,pkn,1.20
2021-12-03T17:00:00,pkn,1.20
2021-12-03T17:02:00,pkn,1.20
2021-12-03T17:04:00,pkn,2.39
2021-12-03T17:05:00,pkn,1.20
2021-12-03T17:07:00,pkn,1.20
2021-12-03T17:09:00,pkn,1.20
2021-12-03T17:11:00,pkn,2.40
2021-12-03T17:13:00,pkn,2.40
2021-12-03T17:15:00,pkn,10.80
2021-12-03T17:16:00,pkn,3.60
2021-12-03T17:18:00,pkn,10.80
2021-12-03T17:20:00,pkn,5.98
2021-12-03T17:22:00,pkn,1.20
2021-12-03T17:24:00,pkn,2.40
2021-12-03T17:26:00,pkn,2.40
2021-12-03T17:28:00,pkn,1.20
2021-12-03T17:29:00,pkn,1.20
2021-12-03T17:30:00,pkn,1.20
2021-12-03T17:31:00,pkn,1.20
2021-12-03T17:33:00,pkn,2.40
2021-12-03T17:35:00,pkn,1.19
2021-12-03T17:36:00,pkn,1.20
2021-12-03T17:37:00,pkn,1.20
2021-12-03T17:39:00,pkn,2.40
2021-12-03T17:41:00,pkn,2.40
2021-12-03T17:43:00,pkn,2.40
2021-12-03T17:44:00,pkn,1.20
2021-12-03T17:46:00,pkn,1.20
2021-12-03T17:47:00,pkn,1.20
2021-12-03T17:49:00,pkn,2.39
2021-12-03T17:51:00,pkn,2.40
2021-12-03T17:53:00,pkn,2.40
2021-12-03T17:55:00,pkn,4.80
2021-12-03T17:57:00,pkn,3.60
2021-12-03T17:59:00,pkn,3.59
2021-12-03T18:00:00,pkn,1.20
2021-12-03T18:02:00,pkn,2.40
2021-12-03T18:03:00,pkn,1.20
2021-12-03T18:06:00,pkn,2.40
2021-12-03T18:08:00,pkn,2.40
2021-12-03T18:09:00,pkn,1.20
2021-12-03T18:11:00,pkn,2.39
2021-12-03T18:13:00,pkn,2.40
2021-12-03T18:16:00,pkn,2.40
2021-12-03T18:17:00,pkn,1.20
2021-12-03T18:18:00,pkn,2.40
2021-12-03T18:20:00,pkn,10.80
2021-12-03T18:22:00,pkn,15.59
2021-12-03T18:24:00,pkn,12.00
2021-12-03T18:27:00,pkn,2.40
2021-12-03T18:28:00,pkn,2.40
2021-12-03T18:31:00,pkn,2.40
2021-12-03T18:33:00,pkn,2.39
2021-12-03T18:36:00,pkn,2.40
2021-12-03T18:38:00,pkn,3.60
2021-12-03T18:41:00,pkn,2.40
2021-12-03T18:43:00,pkn,1.20
2021-12-03T18:45:00,pkn,2.40
2021-12-03T18:47:00,pkn,2.39
2021-12-03T18:48:00,pkn,1.20
2021-12-03T18:49:00,pkn,1.20
2021-12-03T18:51:00,pkn,2.40
2021-12-03T18:52:00,pkn,1.20
2021-12-03T18:54:00,pkn,1.20
2021-12-03T18:56:00,pkn,2.40
2021-12-03T18:58:00,pkn,2.40
2021-12-03T18:59:00,pkn,1.20
2021-12-03T19:01:00,pkn,2.39
2021-12-03T19:03:00,pkn,2.40
2021-12-03T19:04:00,pkn,1.20
2021-12-03T19:06:00,pkn,2.40
2021-12-03T19:07:00,pkn,1.20
2021-12-03T19:08:00,pkn,1.20
2021-12-03T19:10:00,pkn,2.40
2021-12-03T19:12:00,pkn,2.40
2021-12-03T19:14:00,pkn,2.39
2021-12-03T19:16:00,pkn,3.60
2021-12-03T19:18:00,pkn,1.20
2021-12-03T19:19:00,pkn,1.20
2021-12-03T19:21:00,pkn,2.40
2021-12-03T19:22:00,pkn,2.40
2021-12-03T19:24:00,pkn,4.80
2021-12-03T19:25:00,pkn,5.98
2021-12-03T19:27:00,pkn,9.60
2021-12-03T19:28:00,pkn,4.80
2021-12-03T19:29:00,pkn,6.00
2021-12-03T19:31:00,pkn,3.60
2021-12-03T19:32:00,pkn,1.20
2021-12-03T19:34:00,pkn,2.40
2021-12-03T19:36:00,pkn,2.40
2021-12-03T19:38:00,pkn,1.20
2021-12-03T19:40:00,pkn,2.39
2021-12-03T19:42:00,pkn,2.40
2021-12-03T19:44:00,pkn,3.60
2021-12-03T19:46:00,pkn,6.01
2021-12-03T19:47:00,pkn,1.19
2021-12-03T19:49:00,pkn,2.40
2021-12-03T19:51:00,pkn,2.40
2021-12-03T19:53:00,pkn,2.40
2021-12-03T19:54:00,pkn,1.20
2021-12-03T19:56:00,pkn,1.20
2021-12-03T19:58:00,pkn,2.40
2021-12-03T20:00:00,pkn,3.59
2021-12-03T20:01:00,pkn,1.20
2021-12-03T20:03:00,pkn,3.60
2021-12-03T20:04:00,pkn,1.20
2021-12-03T20:06:00,pkn,2.40
2021-12-03T20:08:00,pkn,2.40
2021-12-03T20:09:00,pkn,1.20
2021-12-03T20:11:00,pkn,3.59
2021-12-03T20:13:00,pkn,2.40
2021-12-03T20:14:00,pkn,1.20
2021-12-03T20:16:00,pkn,2.40
2021-12-03T20:17:00,pkn,2.40
2021-12-03T20:19:00,pkn,2.40
2021-12-03T20:21:00,pkn,2.40
2021-12-03T20:23:00,pkn,2.39
2021-12-03T20:24:00,pkn,3.60
2021-12-03T20:26:00,pkn,10.80
2021-12-03T20:28:00,pkn,10.80
2021-12-03T20:29:00,pkn,4.80
2021-12-03T20:31:00,pkn,8.40
2021-12-03T20:33:00,pkn,2.40
2021-12-03T20:34:00,pkn,1.19
2021-12-03T20:35:00,pkn,1.20
2021-12-03T20:37:00,pkn,2.40
2021-12-03T20:39:00,pkn,2.40
2021-12-03T20:41:00,pkn,2.40
2021-12-03T20:42:00,pkn,1.20
2021-12-03T20:44:00,pkn,3.60
2021-12-03T20:45:00,pkn,1.20
2021-12-03T20:47:00,pkn,2.39
2021-12-03T20:48:00,pkn,1.20
2021-12-03T20:50:00,pkn,2.40
2021-12-03T20:51:00,pkn,1.20
2021-12-03T20:52:00,pkn,1.20
2021-12-03T20:54:00,pkn,3.60
2021-12-03T20:56:00,pkn,5.99
2021-12-03T20:58:00,pkn,7.21
2021-12-03T20:59:00,pkn,2.40
2021-12-03T21:01:00,pkn,3.59
2021-12-03T21:02:00,pkn,1.20
2021-12-03T21:04:00,pkn,1.20
2021-12-03T21:06:00,pkn,2.40
2021-12-03T21:08:00,pkn,2.40
2021-12-03T21:10:00,pkn,2.40
2021-12-03T21:12:00,pkn,2.40
2021-12-03T21:13:00,pkn,1.20
2021-12-03T21:14:00,pkn,1.19
2021-12-03T21:16:00,pkn,1.20
2021-12-03T21:17:00,pkn,1.20
2021-12-03T21:19:00,pkn,2.40
2021-12-03T21:20:00,pkn,1.20
2021-12-03T21:22:00,pkn,2.40
2021-12-03T21:24:00,pkn,2.40
2021-12-03T21:26:00,pkn,2.40
2021-12-03T21:27:00,pkn,1.20
2021-12-03T21:29:00,pkn,2.39
2021-12-03T21:31:00,pkn,2.40
2021-12-03T21:32:00,pkn,1.20
2021-12-03T21:34:00,pkn,2.40
2021-12-03T21:36:00,pkn,1.20
2021-12-03T21:38:00,pkn,9.60
2021-12-03T21:40:00,pkn,9.60
2021-12-03T21:42:00,pkn,9.59
2021-12-03T21:43:00,pkn,6.01
2021-12-03T21:45:00,pkn,4.80
2021-12-03T21:47:00,pkn,2.40
2021-12-03T21:49:00,pkn,2.40
2021-12-03T21:51:00,pkn,2.40
2021-12-03T21:52:00,pkn,1.20
2021-12-03T21:54:00,pkn,1.20
2021-12-03T21:56:00,pkn,2.39
2021-12-03T21:58:00,pkn,1.20
2021-12-03T22:00:00,pkn,2.40
2021-12-03T22:01:00,pkn,1.20
2021-12-03T22:03:00,pkn,1.20
2021-12-03T22:05:00,pkn,2.40
2021-12-03T22:06:00,pkn,1.20
2021-12-03T22:08:00,pkn,2.40
2021-12-03T22:10:00,pkn,1.20
2021-12-03T22:11:00,pkn,1.19
2021-12-03T22:12:00,pkn,2.40
2021-12-03T22:14:00,pkn,9.60
2021-12-03T22:15:00,pkn,6.01
2021-12-03T22:17:00,pkn,10.80
2021-12-03T22:19:00,pkn,10.80
2021-12-03T22:21:00,pkn,8.40
2021-12-03T22:22:00,pkn,6.01
2021-12-03T22:24:00,pkn,10.80
2021-12-03T22:25:00,pkn,4.78
2021-12-03T22:27:00,pkn,9.60
2021-12-03T22:29:00,pkn,8.40
2021-12-03T22:31:00,pkn,3.60
2021-12-03T22:33:00,pkn,2.40
2021-12-03T22:34:00,pkn,1.20
2021-12-03T22:36:00,pkn,1.20
2021-12-03T22:38:00,pkn,2.39
2021-12-03T22:40:00,pkn,2.40
2021-12-03T22:42:00,pkn,9.60
2021-12-03T22:43:00,pkn,4.80
2021-12-03T22:45:00,pkn,10.80
2021-12-03T22:47:00,pkn,9.60
2021-12-03T22:49:00,pkn,10.80
2021-12-03T22:51:00,pkn,7.21
2021-12-03T22:53:00,pkn,2.39
2021-12-03T22:55:00,pkn,2.40
2021-12-03T22:56:00,pkn,1.20
2021-12-03T22:58:00,pkn,1.20
2021-12-03T23:00:00,pkn,2.40
2021-12-03T23:02:00,pkn,2.40
2021-12-03T23:03:00,pkn,1.20
2021-12-03T23:04:00,pkn,1.20
2021-12-03T23:06:00,pkn,2.39
2021-12-03T23:08:00,pkn,7.21
2021-12-03T23:10:00,pkn,18.00
2021-12-03T23:12:00,pkn,16.80
2021-12-03T23:13:00,pkn,6.01
2021-12-03T23:15:00,pkn,15.59
2021-12-03T23:17:00,pkn,8.40
2021-12-03T23:19:00,pkn,4.80
2021-12-03T23:21:00,pkn,5.99
2021-12-03T23:23:00,pkn,6.01
2021-12-03T23:24:00,pkn,1.20
2021-12-03T23:26:00,pkn,3.59
2021-12-03T23:28:00,pkn,2.40
2021-12-03T23:30:00,pkn,2.40
2021-12-03T23:32:00,pkn,2.40
2021-12-03T23:33:00,pkn,1.20
2021-12-03T23:35:00,pkn,1.20
2021-12-03T23:37:00,pkn,2.40
2021-12-03T23:39:00,pkn,1.20
2021-12-03T23:41:00,pkn,4.79
2021-12-03T23:43:00,pkn,10.80
2021-12-03T23:44:00,pkn,3.60
2021-12-03T23:46:00,pkn,10.80
2021-12-03T23:48:00,pkn,10.80
2021-12-03T23:50:00,pkn,2.40
2021-12-03T23:52:00,pkn,2.40
2021-12-03T23:54:00,pkn,2.39
2021-12-03T23:55:00,pkn,1.20
2021-12-03T23:57:00,pkn,1.20
2021-12-03T23:58:00,pkn,1.20
